Location: Stull Observatory
(42.2506°N, 77.7903°W)
Time: 01:49:12
(UTC-05:00)

Daily predictions for brighter satellites

Satellite Brightness Start Highest point End
(mag) Time Altitude Azimuth Time Altitude Azimuth Time Altitude Azimuth
Cosmos 2278 Rocket 4.4 03:45:10 19° SE 03:45:10 19° SE 03:46:47 10° SE
SL-16 R/B 4.5 03:45:42 10° SE 03:49:42 20° E 03:53:42 10° NE
Cosmos 2237 Rocket 3.5 04:24:05 31° NNE 04:24:05 31° NNE 04:26:53 10° NNE
USA 215 3.3 04:29:27 10° NE 04:36:00 73° SE 04:37:30 54° SSW
Lacrosse 5 rocket 3.8 04:47:25 14° NNE 04:47:25 14° NNE 04:48:11 10° NNE
CZ-3 R/B 4.4 04:50:43 10° SSW 04:56:48 14° S 05:00:29 10° SSE
CENTAUR R/B 2.4 04:57:19 57° SW 04:58:41 79° NW 05:05:37 10° NE
Meteor 1-14 Rocket 4.1 04:53:48 10° S 04:59:30 87° E 05:05:07 10° N
Cosmos 2219 Rocket 3.9 05:04:55 19° N 05:04:55 19° N 05:06:49 10° N
ADEOS II 4.0 04:57:17 10° N 04:58:21 16° N 04:58:21 16° N
Cosmos 2333 Rocket 3.5 05:08:13 25° NNW 05:08:13 25° NNW 05:11:03 10° N
Cosmos 2297 3.5 05:06:50 56° NW 05:08:03 77° WSW 05:13:41 10° SSE
Okean 1 4.2 05:12:44 19° N 05:15:26 50° E 05:19:21 10° SSE
Cosmos 2181 Rocket 4.0 05:12:39 25° NNW 05:16:24 57° W 05:22:36 10° SSW
Cosmos 1238 Rocket 3.2 05:20:28 27° N 05:22:58 84° W 05:28:27 10° S
Cosmos 2151 Rocket 3.5 05:20:15 10° S 05:24:46 89° E 05:29:17 10° N
Cosmos 2278 Rocket 3.6 05:27:06 22° SW 05:27:06 22° SW 05:29:47 10° SSW
Cosmos 1709 Rocket 4.2 05:19:28 10° SW 05:25:13 41° WNW 05:31:04 10° N
Meteor 1-25 Rocket 4.2 05:20:39 10° S 05:26:29 85° W 05:32:20 10° N
SKYMED 2 3.5 05:22:26 10° SSE 05:26:46 87° ENE 05:29:35 22° NNW
Timation 1 Rocket 4.4 05:26:09 35° NW 05:28:32 59° WSW 05:34:24 10° S
SL-08 ROCKET BODY 4.3 05:24:17 10° S 05:30:17 84° W 05:36:14 10° N
DELTA 2 R/B (1) 4.4 05:30:38 30° WSW 05:32:19 37° SSW 05:37:23 10° SE
Tiangong 2 1.2 05:32:51 66° S 05:32:53 66° SSE 05:36:01 10° E
SL-16 R/B 2.2 05:27:57 11° SW 05:33:17 59° WNW 05:38:54 10° NNE
TIMED 4.5 05:33:55 44° NW 05:35:02 61° WSW 05:39:20 10° S
Cosmos 2056 Rocket 4.1 05:31:28 10° N 05:36:33 53° ENE 05:41:33 10° SE
Cosmos 1346 Rocket 2.8 05:34:43 17° N 05:37:39 75° E 05:41:33 10° SSE
CZ-4 R/B 3.9 05:35:12 10° NE 05:38:25 23° E 05:41:34 10° SSE
Cosmos 1812 2.7 05:39:51 45° NW 05:40:34 53° W 05:44:20 10° S
Lacrosse 5 3.8 05:40:56 10° S 05:45:21 30° SE 05:49:46 10° ENE
USA 32 4.0 05:40:47 10° NNW 05:45:55 58° W 05:51:01 10° SSW
CSL-04 DEB 4.3 05:42:02 10° NNE 05:46:05 87° ESE 05:50:11 10° SSW
Cosmos 1943 Rocket 4.4 05:44:09 10° N 05:47:56 19° NE 05:51:43 10° E
PSLV R/B 3.3 05:47:17 45° WSW 05:48:11 72° S 05:51:33 10° E
DMSP B5D1-3 4.4 05:43:29 10° S 05:48:37 73° WSW 05:53:47 10° NNW
Iridium 2 3.9 05:45:40 10° SSW 05:49:20 46° W 05:53:01 10° N
Cosmos 1624 Rocket 4.1 05:45:37 10° NNW 05:50:55 78° ENE 05:56:14 10° SSE
Cosmos 1536 Rocket 3.6 05:47:49 15° NNW 05:51:25 55° W 05:55:44 10° S
Cosmos 1371 Rocket 3.9 05:49:35 11° NNW 05:54:41 80° WSW 05:59:56 10° SSE
Ariane Rocket 2.9 05:52:15 10° N 05:57:19 77° WNW 06:02:22 10° SSW
Cosmos 1536 4.0 05:56:09 10° SSE 05:59:57 45° E 06:03:47 10° NNE
Radarsat Rocket 4.5 05:55:48 10° N 06:02:30 60° WNW 06:10:05 10° SW
Helios 1B rocket 3.9 06:00:23 10° SE 06:04:13 38° ENE 06:08:05 10° N
Cosmos 2237 Rocket 3.6 06:05:58 17° NW 06:06:03 17° NW 06:09:38 10° N
Meteor 1-28 Rocket 3.3 06:05:51 10° S 06:09:33 54° W 06:13:18 10° NNW
Okean 1 Rocket 3.0 06:05:55 10° S 06:10:21 81° W 06:14:46 10° N
Meteor 2-4 Rocket 4.2 06:05:06 10° N 06:10:32 63° ENE 06:16:05 10° SSE
Nadezhda 3 Rocket 4.0 06:04:51 10° N 06:11:15 83° W 06:17:36 10° S
Cosmos 44 Rocket 4.2 06:06:19 10° SSW 06:11:22 56° ESE 06:16:24 10° NE
Cosmos 1025 Rocket 3.7 06:08:48 10° N 06:13:08 57° E 06:17:25 10° SSE
Okean 1-7 Rocket 3.5 06:09:32 10° N 06:13:58 88° W 06:18:21 10° S
Gbstr 26 Del rocket 4.3 06:12:20 17° W 06:14:28 24° SW 06:17:47 10° S
COSMO-SKYMED 1 3.5 06:11:14 10° SSW 06:14:57 28° W 06:18:11 13° NW
Cosmos 1680 Rocket 4.4 06:13:52 10° WSW 06:18:16 27° WNW 06:22:42 10° N
USA 215 3.7 06:12:42 10° NE 06:18:44 41° NNW 06:24:45 10° W
USA 129 2.3 06:19:45 10° SSW 06:21:31 31° W 06:22:09 25° WNW
Cosmos 921 Rocket 4.0 06:19:07 13° NW 06:22:23 29° W 06:26:16 10° SSW
Cosmos 1633 2.6 06:19:30 10° SSW 06:23:06 57° W 06:26:42 10° N
Lacrosse 5 rocket 3.5 06:23:09 10° NW 06:24:51 13° N 06:26:45 10° NNE
CSL-04 Debris 4.2 06:19:39 10° N 06:25:04 66° WNW 06:30:29 10° SSW
Cosmos 1452 Rocket 4.0 06:21:02 10° NNW 06:26:17 63° ENE 06:31:30 10° SSE
Cosmos 2341 Rocket 4.0 06:20:01 10° S 06:26:21 82° W 06:32:38 10° N
CSL-04 Rocket 3.8 06:21:29 10° N 06:26:54 55° WNW 06:32:16 10° SSW
Cosmos 1603 3.8 06:25:02 10° SW 06:30:36 54° WNW 06:36:11 10° NNE
SL-24 DEB 4.5 06:26:29 10° SSW 06:31:07 51° W 06:35:48 10° NNW
Cosmos 1340 4.0 06:27:57 10° N 06:31:34 41° ENE 06:35:09 10° SSE
Cosmos 962 Rocket 4.4 06:25:42 10° SSW 06:31:50 75° W 06:38:06 10° N
Cosmos 2369 Rocket 2.3 06:28:58 10° NNW 06:34:44 82° ENE 06:40:26 10° SSE
Cosmos 1892 Rocket 4.2 06:33:46 10° N 06:38:11 61° E 06:42:36 10° SSE
Cosmos 1300 Rocket 4.5 06:40:54 10° SW 06:44:42 27° WNW 06:48:30 10° NNW
MOS 1 4.3 06:42:49 10° NNE 06:48:31 89° W 06:54:10 10° SSW
CENTAUR R/B 3.8 06:45:36 10° W 06:50:36 23° NNW 06:56:04 10° NNE
Abrixas rocket 3.4 06:49:24 10° SW 06:52:39 47° SE 06:55:53 10° ENE
Kosmos-1675 4.2 06:50:46 10° SW 06:53:45 67° NW 07:05:59 10° NE
Okean 2 3.4 06:50:12 10° N 06:54:25 81° W 06:58:34 10° S
